When you browse on this site, cookies collect data to enhance your experience and personalize the content and advertising you see.
Visit our Privacy Policy to learn more. By continuing to use the site, you agree to this use of cookies and data.
  • In United Kingdom
  • List of Countries
  • For 7 days
  • Water Temperature
  • Satellite Maps
  • Weather Map
  • Weather Widgets
  • user-avatar
    Login

    Hourly Weather Maassluis

    Today, 25 June, Tuesday

    Time Temperature Precipitation Wind Pressure Humidity
    00:00 +21°C° 0.3 mm 4 mps 763 mmHg 80%
    01:00 +21°C° 0.4 mm 4 mps 763 mmHg 81%
    02:00 +21°C° 0.4 mm 4 mps 762 mmHg 82%
    03:00 +21°C° 0.4 mm 4 mps 762 mmHg 82%
    04:00 +22°C° 0.4 mm 4 mps 762 mmHg 83%
    05:00 +22°C° 0.4 mm 4 mps 762 mmHg 83%
    06:00 +23°C° 0.4 mm 4 mps 762 mmHg 83%
    07:00 +26°C° 0 mm 4 mps 762 mmHg 78%
    08:00 +28°C° 0 mm 3 mps 762 mmHg 73%
    09:00 +29°C° 0 mm 3 mps 761 mmHg 68%
    10:00 +30°C° 0 mm 3 mps 761 mmHg 65%
    11:00 +31°C° 0 mm 3 mps 761 mmHg 62%
    12:00 +33°C° 0 mm 3 mps 761 mmHg 59%
    13:00 +33°C° 0.1 mm 3 mps 761 mmHg 59%
    14:00 +34°C° 0.1 mm 3 mps 762 mmHg 59%
    15:00 +34°C° 0.1 mm 4 mps 762 mmHg 59%
    16:00 +32°C° 0 mm 4 mps 762 mmHg 64%
    17:00 +29°C° 0 mm 4 mps 762 mmHg 70%
    18:00 +27°C° 0 mm 4 mps 763 mmHg 75%
    19:00 +26°C° 0 mm 4 mps 763 mmHg 79%
    20:00 +23°C° 0 mm 4 mps 764 mmHg 82%
    21:00 +22°C° 0 mm 3 mps 765 mmHg 86%
    22:00 +21°C° 0 mm 3 mps 765 mmHg 88%
    23:00 +20°C° 0 mm 4 mps 765 mmHg 89%

    Tomorrow, 26 June, Wednesday

    Time Temperature Precipitation Wind Pressure Humidity
    00:00 +19°C° 0 mm 4 mps 766 mmHg 91%
    01:00 +19°C° 0 mm 4 mps 766 mmHg 91%
    02:00 +19°C° 0 mm 4 mps 766 mmHg 92%
    03:00 +17°C° 0 mm 5 mps 767 mmHg 92%
    04:00 +19°C° 0 mm 5 mps 767 mmHg 90%
    05:00 +19°C° 0 mm 5 mps 767 mmHg 89%
    06:00 +19°C° 0 mm 5 mps 768 mmHg 87%
    07:00 +19°C° 0 mm 5 mps 768 mmHg 84%
    08:00 +20°C° 0 mm 5 mps 769 mmHg 82%
    09:00 +20°C° 0 mm 5 mps 769 mmHg 79%
    10:00 +21°C° 0 mm 6 mps 769 mmHg 76%
    11:00 +22°C° 0 mm 6 mps 770 mmHg 72%
    12:00 +22°C° 0 mm 6 mps 770 mmHg 69%
    13:00 +22°C° 0 mm 6 mps 770 mmHg 69%
    14:00 +21°C° 0 mm 7 mps 770 mmHg 69%
    15:00 +21°C° 0 mm 7 mps 770 mmHg 69%
    16:00 +21°C° 0 mm 7 mps 770 mmHg 69%
    17:00 +20°C° 0 mm 7 mps 770 mmHg 70%
    18:00 +20°C° 0 mm 7 mps 770 mmHg 71%
    19:00 +19°C° 0 mm 6 mps 770 mmHg 73%
    20:00 +17°C° 0 mm 6 mps 771 mmHg 75%
    21:00 +16°C° 0 mm 6 mps 771 mmHg 77%
    22:00 +15°C° 0 mm 5 mps 771 mmHg 78%
    23:00 +15°C° 0 mm 5 mps 771 mmHg 80%

    Day after tomorrow, 27 June, Thursday

    Time Temperature Precipitation Wind Pressure Humidity
    00:00 +14°C° 0 mm 5 mps 771 mmHg 81%
    01:00 +14°C° 0 mm 5 mps 771 mmHg 81%
    02:00 +13°C° 0 mm 5 mps 771 mmHg 80%
    03:00 +13°C° 0 mm 4 mps 771 mmHg 80%
    04:00 +14°C° 0 mm 4 mps 771 mmHg 77%
    05:00 +14°C° 0 mm 4 mps 771 mmHg 73%
    06:00 +15°C° 0 mm 5 mps 771 mmHg 70%
    07:00 +16°C° 0 mm 5 mps 772 mmHg 65%
    08:00 +17°C° 0 mm 5 mps 772 mmHg 60%
    09:00 +20°C° 0 mm 5 mps 772 mmHg 55%
    10:00 +21°C° 0 mm 5 mps 771 mmHg 55%
    11:00 +22°C° 0 mm 5 mps 771 mmHg 55%
    12:00 +23°C° 0 mm 5 mps 771 mmHg 55%
    13:00 +22°C° 0 mm 6 mps 771 mmHg 56%
    14:00 +22°C° 0 mm 6 mps 771 mmHg 56%
    15:00 +22°C° 0 mm 6 mps 771 mmHg 57%
    16:00 +21°C° 0 mm 6 mps 771 mmHg 60%
    17:00 +21°C° 0 mm 6 mps 771 mmHg 63%
    18:00 +20°C° 0 mm 6 mps 770 mmHg 66%
    19:00 +19°C° 0 mm 6 mps 771 mmHg 70%
    20:00 +16°C° 0 mm 5 mps 771 mmHg 74%
    21:00 +15°C° 0 mm 5 mps 771 mmHg 78%
    22:00 +14°C° 0 mm 5 mps 771 mmHg 80%
    23:00 +14°C° 0 mm 4 mps 770 mmHg 83%

    28 June, Friday

    Time Temperature Precipitation Wind Pressure Humidity
    00:00 +13°C° 0 mm 4 mps 770 mmHg 86%
    01:00 +13°C° 0 mm 4 mps 770 mmHg 87%
    02:00 +13°C° 0 mm 4 mps 770 mmHg 88%
    03:00 +12°C° 0 mm 3 mps 770 mmHg 89%
    04:00 +13°C° 0 mm 3 mps 770 mmHg 86%
    05:00 +14°C° 0 mm 3 mps 770 mmHg 83%
    06:00 +16°C° 0 mm 3 mps 770 mmHg 80%
    07:00 +17°C° 0 mm 3 mps 770 mmHg 73%
    08:00 +19°C° 0 mm 3 mps 770 mmHg 65%
    09:00 +20°C° 0 mm 3 mps 770 mmHg 57%
    10:00 +22°C° 0 mm 4 mps 769 mmHg 54%
    11:00 +23°C° 0 mm 4 mps 769 mmHg 51%
    12:00 +25°C° 0 mm 4 mps 769 mmHg 48%
    13:00 +25°C° 0 mm 4 mps 769 mmHg 47%
    14:00 +26°C° 0 mm 5 mps 768 mmHg 47%
    15:00 +26°C° 0 mm 5 mps 768 mmHg 46%
    16:00 +25°C° 0 mm 5 mps 768 mmHg 51%
    17:00 +25°C° 0 mm 4 mps 768 mmHg 55%
    18:00 +23°C° 0 mm 4 mps 767 mmHg 59%
    19:00 +22°C° 0 mm 4 mps 767 mmHg 63%
    20:00 +20°C° 0 mm 4 mps 767 mmHg 68%
    21:00 +19°C° 0 mm 4 mps 768 mmHg 72%
    22:00 +18°C° 0 mm 4 mps 767 mmHg 75%
    23:00 +17°C° 0 mm 4 mps 767 mmHg 78%

    29 June, Saturday

    Time Temperature Precipitation Wind Pressure Humidity
    00:00 +15°C° 0 mm 5 mps 767 mmHg 81%
    01:00 +15°C° 0 mm 4 mps 766 mmHg 82%
    02:00 +14°C° 0 mm 4 mps 766 mmHg 82%
    03:00 +14°C° 0 mm 4 mps 765 mmHg 82%
    04:00 +14°C° 0 mm 4 mps 765 mmHg 80%
    05:00 +15°C° 0 mm 4 mps 765 mmHg 79%
    06:00 +17°C° 0 mm 4 mps 765 mmHg 77%
    07:00 +19°C° 0 mm 4 mps 765 mmHg 71%
    08:00 +21°C° 0 mm 4 mps 764 mmHg 65%
    09:00 +23°C° 0 mm 4 mps 764 mmHg 59%
    10:00 +25°C° 0 mm 4 mps 764 mmHg 56%
    11:00 +27°C° 0 mm 4 mps 763 mmHg 52%
    12:00 +28°C° 0 mm 4 mps 763 mmHg 48%
    13:00 +29°C° 0 mm 4 mps 762 mmHg 47%
    14:00 +29°C° 0 mm 4 mps 762 mmHg 46%
    15:00 +30°C° 0 mm 4 mps 761 mmHg 44%
    16:00 +30°C° 0 mm 4 mps 761 mmHg 47%
    17:00 +29°C° 0 mm 4 mps 761 mmHg 49%
    18:00 +29°C° 0 mm 4 mps 760 mmHg 51%
    19:00 +27°C° 0 mm 4 mps 760 mmHg 54%
    20:00 +26°C° 0 mm 4 mps 760 mmHg 56%
    21:00 +25°C° 0 mm 4 mps 760 mmHg 59%
    22:00 +23°C° 0 mm 4 mps 760 mmHg 61%
    23:00 +23°C° 0 mm 4 mps 759 mmHg 64%

    30 June, Sunday

    Time Temperature Precipitation Wind Pressure Humidity
    00:00 +22°C° 0 mm 4 mps 759 mmHg 67%
    01:00 +22°C° 0 mm 4 mps 759 mmHg 71%
    02:00 +21°C° 0 mm 4 mps 759 mmHg 75%
    03:00 +20°C° 0 mm 4 mps 758 mmHg 79%
    04:00 +21°C° 0 mm 4 mps 759 mmHg 80%
    05:00 +21°C° 0 mm 4 mps 759 mmHg 81%
    06:00 +22°C° 0 mm 4 mps 759 mmHg 82%
    07:00 +22°C° 0 mm 4 mps 760 mmHg 78%
    08:00 +22°C° 0 mm 4 mps 760 mmHg 74%
    09:00 +23°C° 0 mm 4 mps 760 mmHg 70%
    10:00 +23°C° 0 mm 4 mps 761 mmHg 67%
    11:00 +23°C° 0 mm 5 mps 761 mmHg 64%
    12:00 +23°C° 0 mm 5 mps 761 mmHg 60%
    13:00 +22°C° 0 mm 5 mps 761 mmHg 60%
    14:00 +22°C° 0 mm 5 mps 761 mmHg 59%
    15:00 +22°C° 0 mm 4 mps 761 mmHg 59%
    16:00 +21°C° 0 mm 4 mps 762 mmHg 63%
    17:00 +21°C° 0 mm 4 mps 762 mmHg 66%
    18:00 +21°C° 0 mm 4 mps 762 mmHg 70%
    19:00 +20°C° 0 mm 4 mps 762 mmHg 74%
    20:00 +19°C° 0 mm 4 mps 762 mmHg 79%
    21:00 +18°C° 0 mm 4 mps 763 mmHg 83%
    22:00 +18°C° 0 mm 4 mps 763 mmHg 84%
    23:00 +18°C° 0 mm 4 mps 763 mmHg 85%
    Show more